Temperatura si umiditatea in Oradea

<< Februarie 2019 >>
L M Mi J V S D
        1 2 3
4 5 6 7 8 9 10
11 12 13 14 15 16 17
18 19 20 21 22 23 24
25 26 27 28      

Temperatura si umiditatea in Oradea la data de 20.02.2019
Ora Temperatura Umiditatea Presiunea
00:00 2.2 °C (-1.0) 76 % 1.018 bar
00:30 1.7 °C (2.0) 73 % 1.018 bar
01:00 1.7 °C (-2.0) 71 % 1.018 bar
01:30 1.1 °C (-1.0) 70 % 1.018 bar
02:00 1.1 °C (1.0) 69 % 1.018 bar
02:30 1.1 °C (1.0) 65 % 1.018 bar
03:00 0.6 °C (-2.0) 64 % 1.018 bar
03:30 0.6 °C (-2.0) 64 % 1.018 bar
04:00 0.6 °C (-2.0) 62 % 1.018 bar
04:30 0.0 °C (0.0) 63 % 1.018 bar
05:00 0.0 °C (0.0) 63 % 1.018 bar
05:30 0.0 °C (0.0) 62 % 1.018 bar
06:00 -0.6 °C (-1.0) 62 % 1.018 bar
06:30 0.0 °C (0.0) 62 % 1.018 bar
07:00 1.1 °C (1.0) 61 % 1.018 bar
07:30 0.6 °C (1.0) 62 % 1.018 bar
08:00 0.6 °C (1.0) 61 % 1.018 bar
08:30 2.2 °C (-1.0) 64 % 1.018 bar
09:00 3.3 °C (3.0) 67 % 1.018 bar
09:30 4.4 °C (2.0) 73 % 1.019 bar
 
Ora Temperatura Umiditatea Presiunea
10:00 5.6 °C (4.0) 82 % 1.02 bar
10:30 5.6 °C (6.0) 81 % 1.02 bar
11:00 6.1 °C (4.0) 85 % 1.02 bar
11:30 6.1 °C (4.0) 85 % 1.02 bar
12:00 7.2 °C (6.0) 85 % 1.021 bar
12:30 7.8 °C (7.0) 82 % 1.021 bar
13:00 8.9 °C (9.0) 87 % 1.021 bar
13:30 9.4 °C (9.0) 85 % 1.021 bar
14:00 10.0 °C (10.0) 83 % 1.021 bar
14:30 11.1 °C (11.1) 62 % 1.021 bar
15:00 11.7 °C (11.7) 64 % 1.021 bar
15:30 12.2 °C (12.2) 53 % 1.021 bar
16:00 11.7 °C (11.7) 55 % 1.021 bar
16:30 11.7 °C (11.7) 63 % 1.021 bar
17:00 11.1 °C (11.1) 77 % 1.021 bar
17:30 10.0 °C (10.0) 71 % 1.021 bar
18:00 9.4 °C (9.0) 70 % 1.021 bar
18:30 8.9 °C (9.0) 80 % 1.021 bar
19:00 8.3 °C (8.0) 86 % 1.021 bar
19:30 7.8 °C (8.0) 89 % 1.021 bar